Content
SEND FEEDBACK

Daily
Averages
Monthly
Summary
United States of America

ALBANY, NEW YORK


Home > North America > United States > New York
Elevation: 275 feet     Latitude: 42 45N     Longitude: 073 48W

WEATHER
 
SELECT A DAY
Number of Records: 206,395;   Date Range: 1/1/95 - 7/20/14
 
SHARE

PRINT THIS DATA

[ ← Previous Day ]
WEATHER ALMANAC - JANUARY 1, 2013
[ Next Day → ]
[ °C ]   °F
Weather ElementAverageHighLow
Temperature25.6 °F35.1 °F (1:51 am)10 °F (10:51 pm)
Dewpoint14.8 °F26.6 °F (4:36 am)3.9 °F (10:51 pm)
Humidity63.8 %76 % (10:51 pm)53 % (5:51 pm)
Barometer29.90 in30.01 in (7:51 pm)29.78 in (1:51 am)
Wind Speed11.1 mph20.7 mph (1:51 pm)
Wind Gust32.2 mph (2:51 pm)
Weather ElementAverage
Visibility9.8 mi
Wind DirectionW (265.8 °)

Weather ElementTotal
Precipitation---
Heating Degree Days42.5 (Base 65)
Averaged from 24 records on January 1, 2013
WEATHER CONDITIONS BREAKOUT
WIND DIRECTION BREAKOUT
WEATHER BY HOUR - JANUARY 1, 2013
[ °C ]   °F
Local TimeTemperatureDewpointHumidityBarometerVisibilityWind DirectionWind SpeedGust SpeedPrecipitationEventsConditions
1:51 AM35.1 °F25.0 °F67 %29.78 in10.0 miSW (230°)12.7 mph20.7 mph0.00 inSnowLight Snow
2:51 AM35.1 °F25.0 °F67 %29.78 in10.0 miWSW (250°)6.9 mph0.00 inSnowLight Snow
3:51 AM35.1 °F25.0 °F67 %29.79 in8.0 miWest (270°)10.4 mph0.00 inSnowLight Snow
4:36 AM33.8 °F26.6 °F75 %29.79 in8.0 miWNW (290°)12.7 mph20.7 mph0.00 inSnowLight Snow
4:51 AM34.0 °F25.0 °F70 %29.80 in9.0 miWNW (300°)17.3 mph25.3 mph0.00 inSnowLight Snow
5:51 AM33.1 °F21.0 °F61 %29.83 in10.0 miWNW (290°)13.8 mph24.2 mph0.00 inSnowLight Snow
6:51 AM30.0 °F18.0 °F61 %29.86 in10.0 miNW (310°)15.0 mph26.5 mph0.00 inSnowLight Snow
7:51 AM28.9 °F18.0 °F64 %29.88 in10.0 miNW (320°)13.8 mph18.4 mph0.00 inMostly Cloudy
8:51 AM28.0 °F16.0 °F61 %29.89 in10.0 miNW (310°)13.8 mph26.5 mph0.00 inSnowLight Snow
9:51 AM28.0 °F16.0 °F61 %29.92 in10.0 miNNW (330°)11.5 mph0.00 inSnowLight Snow
10:51 AM27.0 °F16.0 °F63 %29.92 in10.0 miNW (310°)13.8 mph19.6 mph0.00 inSnowLight Snow
11:51 AM28.0 °F16.0 °F61 %29.90 in10.0 miWest (280°)13.8 mph23.0 mph0.00 inOvercast
12:51 PM27.0 °F15.1 °F61 %29.91 in10.0 miWest (280°)12.7 mphMostly Cloudy
1:51 PM26.1 °F15.1 °F63 %29.90 in10.0 miWNW (290°)20.7 mph28.8 mphMostly Cloudy
2:51 PM25.0 °F12.9 °F60 %29.89 in10.0 miWest (280°)15.0 mph32.2 mphScattered Clouds
3:51 PM24.1 °F10.9 °F57 %29.92 in10.0 miWNW (290°)10.4 mphScattered Clouds
4:51 PM23.0 °F10.0 °F58 %29.93 in10.0 miWNW (290°)13.8 mphScattered Clouds
5:51 PM21.9 °F7.0 °F53 %29.96 in10.0 miWNW (290°)8.1 mph19.6 mphScattered Clouds
6:51 PM19.9 °F7.0 °F57 %29.99 in10.0 miWNW (290°)9.2 mph17.3 mphScattered Clouds
7:51 PM19.0 °F7.0 °F59 %30.01 in10.0 miWNW (300°)9.2 mphScattered Clouds
8:51 PM16.0 °F6.1 °F65 %30.00 in10.0 miWest (280°)5.8 mphPartly Cloudy
9:51 PM12.0 °F5.0 °F73 %30.00 in10.0 miCalmClear
10:51 PM10.0 °F3.9 °F76 %30.01 in10.0 miCalmPartly Cloudy
11:51 PM15.1 °F7.0 °F70 %30.00 in10.0 miWNW (300°)6.9 mphScattered Clouds
Hourly data recorded from KALB, located miles away from Albany, New York







STORIES FROM OUR PARTNERS